This is the latest recevied weather packets stored in our database for station/object KC5TXI. If no packets are shown the sender has not sent any weather packets the latest 10 day(s).
| Time | Temp. | Humidity | Pressure | Rain* | Wind** | Luminosity | Snow |
|---|---|---|---|---|---|---|---|
| 1787659402 | 27.78° C | 60% | 1017.1 hPa | 0 mm | - | 0 W/m² | - |
| 1787659101 | 27.78° C | 61% | 1016.6 hPa | 0 mm | - | 0 W/m² | - |
| 1787658797 | 27.22° C | 60% | 1016.4 hPa | 0 mm | - | 0 W/m² | - |
| 1787658496 | 26.67° C | 62% | 1016.2 hPa | 0 mm | - | 0 W/m² | - |
| 1787658193 | 26.67° C | 62% | 1016.3 hPa | 0 mm | - | 0 W/m² | - |
| 1787657888 | 26.67° C | 62% | 1016.2 hPa | 0 mm | - | 0 W/m² | - |
| 1787657588 | 27.22° C | 62% | 1015.8 hPa | 0 mm | - | 0 W/m² | - |
| 1787657283 | 26.67° C | 62% | 1015.7 hPa | 0 mm | - | 0 W/m² | - |
| 1787656978 | 26.67° C | 62% | 1015.5 hPa | 0 mm | - | 0 W/m² | - |
| 1787656675 | 26.67° C | 62% | 1015.5 hPa | 0 mm | - | 0 W/m² | - |
| 1787656370 | 27.22° C | 61% | 1015.6 hPa | 0 mm | - | 0 W/m² | - |
| 1787656065 | 27.22° C | 60% | 1015.3 hPa | 0 mm | - | 0 W/m² | - |
| 1787655762 | 27.22° C | 60% | 1015.4 hPa | 0 mm | - | 0 W/m² | - |
| 1787655460 | 27.78° C | 59% | 1015.4 hPa | 0 mm | - | 0 W/m² | - |
| 1787655159 | 27.78° C | 59% | 1015.3 hPa | 0 mm | - | 0 W/m² | - |
| 1787654856 | 27.78° C | 59% | 1015.5 hPa | 0 mm | - | 0 W/m² | - |
| 1787654551 | 27.78° C | 58% | 1015.3 hPa | 0 mm | - | 0 W/m² | - |
| 1787654246 | 28.33° C | 57% | 1015.3 hPa | 0 mm | - | 0 W/m² | - |
| 1787653941 | 28.33° C | 57% | 1015.3 hPa | 0 mm | - | 0 W/m² | - |
| 1787653636 | 28.33° C | 56% | 1015.3 hPa | 0 mm | - | 0 W/m² | - |
| 1787653332 | 28.89° C | 56% | 1015 hPa | 0 mm | - | 0 W/m² | - |
| 1787653027 | 28.89° C | 55% | 1015.1 hPa | 0 mm | - | 0 W/m² | - |
| 1787652722 | 28.89° C | 55% | 1015.1 hPa | 0 mm | - | 0 W/m² | - |
| 1787652416 | 28.89° C | 54% | 1015.2 hPa | 0 mm | - | 0 W/m² | - |
| 1787652112 | 29.44° C | 54% | 1015 hPa | 0 mm | - | 0 W/m² | - |
* Rain latest hour (hover to see other rain measurements)
** Current wind speed in m/s (hover to see current wind gust speed)